Jacksonville, FL

4:10 PM EDT on September 28, 2016 (GMT -0400)
Jacksonville International

Weather History for KJAX - February, 2013

Change the Weather History Date:

Tuesday, February 26, 2013

  Actual Average Record
Temperature  
Mean Temperature 69 °F 58 °F  
Max Temperature 79 °F 70 °F 88 °F (1962)
Min Temperature 58 °F 47 °F 22 °F (1967)
Degree Days  
Heating Degree Days 0 7  
Month to date heating degree days 224 242  
Since 1 July heating degree days 881 1118  
Cooling Degree Days 4 1  
Month to date cooling degree days 35 21  
Year to date cooling degree days 76 32  
Growing Degree Days 19 (Base 50)    
Moisture  
Dew Point 61 °F    
Average Humidity 68    
Maximum Humidity 100    
Minimum Humidity 35    
Precipitation  
Precipitation 0.59 in 0.12 in 1.19 in (1958)
Month to date precipitation 4.71 2.95  
Year to date precipitation 5.72 6.25  
Snow  
Snow 0.00 in 0.00 in 0.00 in (2002)
Month to date snowfall 0.0 0.0  
Since 1 July snowfall 0.0 T  
Snow Depth 0.00 in    
Sea Level Pressure  
Sea Level Pressure 29.73 in    
Wind  
Wind Speed 14 mph (SSW)    
Max Wind Speed 25 mph    
Max Gust Speed 32 mph    
Visibility 8 miles    
Events Rain    
T = Trace of Precipitation, MM = Missing Value Source: NWS Daily Summary

Daily Weather History Graph

Daily Weather History Graph

Search for Another Location

Airport or City:

Trip Planner

Search our weather history database for the weather conditions in past years. The results will help you decide how hot, cold, wet, or windy it might be!

Date:

Astronomy

Feb. 26, 2013 Rise Set
Actual Time 6:56 AM EST 6:23 PM EST
Civil Twilight 6:31 AM EST 6:47 PM EST
Nautical Twilight 6:03 AM EST 7:15 PM EST
Astronomical Twilight 5:36 AM EST 7:43 PM EST
Moon 7:29 PM EST (2/26) 7:04 AM EST (2/26)
Length of Visible Light 12h 15m
Length of Day
11h 27m
Full, 99% of the Moon is Illuminated
Feb 26
Full
Mar 4
Last Quarter
Mar 11
New
Mar 19
First Quarter
Mar 27
Full

Hourly Weather History & Observations

Time (EST) Temp. Dew Point Humidity Pressure Visibility Wind Dir Wind Speed Gust Speed Precip Events Conditions
12:56 AM 66.0 °F 64.9 °F 96% 29.79 in 10.0 mi East 10.4 mph - N/A   Overcast
1:56 AM 66.0 °F 66.0 °F 100% 29.77 in 9.0 mi ESE 6.9 mph - N/A   Overcast
2:56 AM 66.9 °F 66.9 °F 100% 29.74 in 7.0 mi ESE 6.9 mph - N/A   Overcast
3:56 AM 66.9 °F 66.9 °F 100% 29.72 in 7.0 mi SE 5.8 mph - N/A   Overcast
4:56 AM 66.9 °F 66.0 °F 97% 29.72 in 6.0 mi SSE 6.9 mph - N/A   Overcast
5:52 AM 66.2 °F 66.2 °F 100% 29.69 in 7.0 mi SSE 11.5 mph - N/A   Overcast
5:56 AM 66.9 °F 66.0 °F 97% 29.69 in 8.0 mi SSE 10.4 mph - N/A   Overcast
6:56 AM 66.9 °F 66.0 °F 97% 29.68 in 10.0 mi South 12.7 mph 23.0 mph 0.00 in Rain Light Rain
7:56 AM 66.9 °F 66.0 °F 97% 29.70 in 6.0 mi South 12.7 mph 21.9 mph 0.03 in Rain Light Rain
8:05 AM 66.2 °F 64.4 °F 94% 29.70 in 2.0 mi South 17.3 mph 25.3 mph 0.01 in Rain Light Rain
8:38 AM 66.2 °F 66.2 °F 100% 29.71 in 5.0 mi South 15.0 mph - 0.04 in Rain Light Rain
8:56 AM 66.9 °F 66.0 °F 97% 29.72 in 3.0 mi South 10.4 mph - 0.08 in Rain Light Rain
9:11 AM 66.2 °F 66.2 °F 100% 29.73 in 2.0 mi South 10.4 mph 17.3 mph 0.05 in Rain Light Rain
9:42 AM 68.0 °F 66.2 °F 94% 29.73 in 2.0 mi SSW 12.7 mph - 0.18 in Rain Light Rain
9:56 AM 68.0 °F 66.9 °F 96% 29.73 in 2.0 mi SSW 8.1 mph - 0.26 in Rain Light Rain
10:08 AM 68.0 °F 66.2 °F 94% 29.74 in 1.5 mi WSW 11.5 mph 25.3 mph 0.09 in Rain Light Rain
10:26 AM 66.2 °F 64.4 °F 94% 29.72 in 1.0 mi South 12.7 mph 21.9 mph 0.21 in Rain Light Rain
10:34 AM 66.2 °F 64.4 °F 94% 29.73 in 6.0 mi South 15.0 mph - 0.22 in Rain Light Rain
10:56 AM 66.0 °F 64.0 °F 93% 29.73 in 10.0 mi SSW 12.7 mph - 0.22 in   Mostly Cloudy
11:56 AM 69.1 °F 66.0 °F 90% 29.72 in 10.0 mi SSW 19.6 mph 27.6 mph N/A   Mostly Cloudy
12:56 PM 71.6 °F 60.8 °F 69% 29.69 in 10.0 mi SSW 20.7 mph 28.8 mph N/A   Scattered Clouds
1:56 PM 78.1 °F 51.1 °F 39% 29.68 in 10.0 mi SW 19.6 mph 27.6 mph N/A   Scattered Clouds
2:56 PM 78.1 °F 52.0 °F 40% 29.69 in 10.0 mi SW 19.6 mph 27.6 mph N/A   Scattered Clouds
3:56 PM 78.1 °F 48.9 °F 36% 29.68 in 10.0 mi WSW 25.3 mph 31.1 mph N/A   Scattered Clouds
4:56 PM 75.9 °F 46.0 °F 35% 29.68 in 10.0 mi SW 21.9 mph 29.9 mph N/A   Scattered Clouds
5:56 PM 71.1 °F 54.0 °F 55% 29.70 in 10.0 mi SSW 13.8 mph - N/A   Scattered Clouds
6:56 PM 68.0 °F 54.0 °F 61% 29.73 in 10.0 mi SW 15.0 mph 27.6 mph N/A   Scattered Clouds
7:56 PM 66.0 °F 52.0 °F 60% 29.76 in 10.0 mi SW 15.0 mph 24.2 mph N/A   Scattered Clouds
8:56 PM 64.0 °F 52.0 °F 65% 29.78 in 10.0 mi SW 15.0 mph 23.0 mph N/A   Scattered Clouds
9:56 PM 63.0 °F 53.1 °F 70% 29.80 in 10.0 mi WSW 16.1 mph 28.8 mph N/A   Scattered Clouds
10:56 PM 60.8 °F 51.8 °F 72% 29.82 in 10.0 mi WSW 17.3 mph 23.0 mph N/A   Scattered Clouds
11:56 PM 57.9 °F 52.0 °F 81% 29.84 in 10.0 mi West 19.6 mph 25.3 mph N/A   Scattered Clouds